Regional Weather Roundup
Issued by NWS Boston, MA

Home | Current Version | Previous Version | Text Only | Print | Product List | Glossary On
Versions: 1 2 3 4 5 6 7 8 9 10 11 12 13 14 15 16 17 18 19 20 21 22 23 24 25 26 27 28 29 30 31 32 33 34 35 36 37 38 39 40 41 42 43 44 45 46 47 48 49 50
000
ASUS41 KBOX 191410
RWRBOX

REGIONAL WEATHER ROUNDUP
NATIONAL WEATHER SERVICE TAUNTON MA
1000 AM EDT FRI SEP 19 2014

NOTE:  "FAIR" INDICATES FEW OR NO CLOUDS BELOW 12,000 FEET WITH NO
SIGNIFICANT WEATHER AND/OR OBSTRUCTIONS TO VISIBILITY.  THE FOLLOWING
OBSERVATION LOCATIONS DO NOT REPORT PRESENT WEATHER...PROVINCETOWN...
SMITHFIELD...BLOCK ISLAND...KEENE...AND OXFORD.

MAZALL-191500-
EASTERN MASSACHUSETTS

CITY           SKY/WX    TMP DP  RH WIND       PRES   REMARKS
BOSTON         SUNNY     53  35  50 N10       30.39R
BEVERLY        MOSUNNY   52  34  50 NE10      30.38R
LAWRENCE       SUNNY     50  31  48 NE10      30.41R
BEDFORD        SUNNY     51  30  44 NE10      30.38R
BLUE HILL        N/A     52  31  44 NE12G18   30.36R
NORWOOD        SUNNY     54  31  41 NE9       30.37S
MARSHFIELD     NOT AVBL
PLYMOUTH       PTSUNNY   54  35  48 N17G23    30.37R
TAUNTON        PTSUNNY   56  37  49 NE7       30.36R
NEW BEDFORD    SUNNY     55  37  50 NE13G21   30.35R
$$

MAZALL-191500-
CAPE COD AND THE ISLANDS

CITY           SKY/WX    TMP DP  RH WIND       PRES   REMARKS
FALMOUTH       PTSUNNY   54  37  54 N12G22    30.35R
HYANNIS        MOSUNNY   57  36  45 N17G23    30.33R
CHATHAM        SUNNY     56  38  50 N10G21    30.34R
PROVINCETOWN   SUNNY     55  37  50 N13G21    30.36R
NANTUCKET      MOSUNNY   58  40  51 NE22      30.31R
MARTHAS VNYRD  MOSUNNY   58  39  49 N16G25    30.33R
$$

MAZALL-191500-
CENTRAL AND WESTERN MASSACHUSETTS

CITY           SKY/WX    TMP DP  RH WIND       PRES   REMARKS
WORCESTER      SUNNY     47  33  58 VRB7      30.37R
FITCHBURG      SUNNY     50  33  52 NE10      30.40R
ORANGE         SUNNY     49  32  52 NE8       30.38R
SPRINGFIELD    SUNNY     51  35  53 N10       30.37R
WESTFIELD      SUNNY     52  32  46 NE9       30.39R
NORTH ADAMS    SUNNY     49  35  58 CALM      30.37S
PITTSFIELD     SUNNY     47  33  58 E5        30.35R
$$

RIZALL-191500-
RHODE ISLAND

CITY           SKY/WX    TMP DP  RH WIND       PRES   REMARKS
PROVIDENCE     MOSUNNY   55  36  48 NE13      30.38R
NEWPORT        SUNNY     57  40  52 N13       30.35R
BLOCK ISLAND   MOSUNNY   55  41  58 NE15G22   30.34R
SMITHFIELD     SUNNY     52  30  43 N12       30.37R
WESTERLY       SUNNY     56  38  50 NE10      30.35R
$$

CTZALL-191500-
CONNECTICUT

CITY           SKY/WX    TMP DP  RH WIND       PRES   REMARKS
BRADLEY INTL   MOSUNNY   54  34  46 NE14      30.37R
HARTFORD       SUNNY     52  38  58 N8        30.38R
BRIDGEPORT     MOSUNNY   56  39  53 NE14      30.35R
DANBURY        SUNNY     53  37  54 E8        30.37R
GROTON         SUNNY     56  39  53 NE9       30.35R
NEW HAVEN      MOSUNNY   57  39  51 N13       30.36R
CHESTER        FAIR      54  36  50 NE7       30.36R
MERIDEN        SUNNY     54  37  52 N10       30.37R
WILLIMANTIC    SUNNY     53  35  50 NE10      30.37R
OXFORD         MOSUNNY   52  36  54 E10       30.37R
$$

MEZ002-015-021-024-NHZ003-005-008-011-012-014-VTZ005-008-191500-
NORTHERN NEW ENGLAND

CITY           SKY/WX    TMP DP  RH WIND       PRES   REMARKS
PORTLAND ME    SUNNY     51  30  44 N13       30.39R
BANGOR ME      SUNNY     48  27  44 N8        30.38R
CONCORD NH     SUNNY     50  34  54 CALM      30.40R
MANCHESTER NH  SUNNY     51  30  44 NE12      30.38R
NASHUA NH      SUNNY     49  33  54 VRB5      30.41R
PORTSMOUTH NH  MOSUNNY   52  29  40 N12       30.38R
JAFFREY NH     SUNNY     45  33  63 VRB3      30.38R
KEENE NH       SUNNY     46  28  49 N6        30.39S
BURLINGTON VT  SUNNY     46  30  53 CALM      30.41S
MT. WASHINGTON MOSUNNY   21  -2  35 N21         N/A  WCI   6
$$

NYZ052-076-191500-
EASTERN NEW YORK

CITY           SKY/WX    TMP DP  RH WIND       PRES   REMARKS
ALBANY         MOSUNNY   50  36  58 NE7       30.39S
NEW YORK CITY  MOSUNNY   58  44  60 NE16      30.33R
$$

ANZALL-191500-
MARINE OBSERVATIONS

STATION/POSITION TIME  TEMP    WIND        PRES    VSBY  WAVE
                       AIR SEA DIR/SP/G                  HT/PER
                 (UTC) (F)     (DEG/KT/KT) (MB)    (MI)  (FT/S)
BOSTON BUOY      1350   51 61   20/ 14/ 17 1028.4R         5/ 7
BUZZARDS BAY     1300           30/ 18/ 22 1027.2R
NANTUCKET SOUND  1350   55 67   20/ 16/ 21 1026.6R         2/ 4
MASS BAY-STELLWA 1304   52 60   20/ 16/ 19   N/A    1 7/8  4/ 6
ISLE OF SHOALS   1400   49      30/ 18/ 22 1028.4R
S OF BLOCK IS    1308      67                N/A           5/ 5
$$

......................KEY.........................
  SKY/WX - SKY CONDITION/PRESENT WEATHER
  TMP    - TEMPERATURE IN FAHRENHEIT
  DWPT   - DEWPOINT IN FAHRENHEIT
  RH     - RELATIVE HUMIDITY IN PERCENT
  WIND   - DIRECTION AND SPEED IN MPH
  PRES   - MEAN SEA LEVEL PRESSURE IN INCHES OF HG
  WCI    - WIND CHILL INDEX
  VSB    - VISIBILITY IN MILES
  HX     - HEAT INDEX
  TC     - TEMPERATURE IN CELSIUS
  VRB    - VARIABLE WIND DIRECTION
  N/A    - NOT AVAILABLE


USA.gov is the U.S. government's official web portal to all federal, state and local government web resources and services.